[[[{"header":{"parameterUnit":"kt","parameterCategory":2,"dx":1,"dy":1,"la1":30.253999710083008,"la2":30.299108505249023,"lo1":-89.0895004272461,"lo2":-89.04439544677734,"nx":28,"ny":28,"refTime":"2022-10-31T21:00:00:Z","depth":"0","parameterNumber":2,"parameterNumberName":"U-component_of_CURRENTS"},"data":[-0.2084,-0.2063,-0.2006,-0.1946,-0.1902,-0.178,-0.1704,-0.1606,-0.1621,-0.1762,-0.1975,-0.2171,-0.2421,-0.2454,-0.2327,-0.2156,-0.1878,-0.1803,-0.1623,-0.1762,-0.1756,-0.1749,-0.1712,-0.1797,-0.1796,-0.1474,-0.147,-0.1467,-0.2027,-0.1979,-0.1955,-0.1899,-0.1871,-0.1824,-0.1733,-0.1653,-0.1643,-0.1762,-0.1824,-0.2114,-0.2222,-0.2303,-0.2445,-0.2236,-0.2113,-0.2019,-0.193,-0.1841,-0.2088,-0.2072,-0.2235,-0.2235,-0.2236,-0.2236,-0.2236,-0.2236,-0.1905,-0.1913,-0.1876,-0.185,-0.1825,-0.177,-0.1711,-0.1693,-0.1688,-0.1706,-0.1793,-0.1877,-0.2055,-0.2144,-0.2112,-0.2152,-0.1987,-0.2081,-0.1928,-0.1892,-0.1787,-0.2043,-0.2201,-0.22,-0.22,-0.2199,-0.2199,0,-0.1814,-0.1787,-0.1786,-0.1762,-0.1744,-0.171,-0.168,-0.1671,-0.1629,-0.1662,-0.1727,-0.1759,-0.1858,-0.1955,-0.1994,-0.1974,-0.1813,-0.1941,-0.1863,-0.1752,-0.172,-0.1619,-0.1801,-0.1961,-0.1959,-0.1957,-0.1956,-0.1955,-0.1682,-0.1703,-0.1672,-0.1667,-0.1658,-0.1651,-0.1631,-0.1585,-0.1576,-0.1611,-0.1627,-0.1672,-0.1697,-0.1758,-0.18,-0.1825,-0.1663,-0.1886,-0.1831,-0.1777,-0.1624,-0.1572,-0.1487,-0.1931,-0.1934,-0.1937,-0.1939,0,-0.1599,-0.1577,-0.1607,-0.1579,-0.157,-0.1589,-0.1545,-0.1546,-0.1537,-0.1558,-0.1559,-0.1573,-0.1606,-0.1574,-0.1587,-0.16,-0.1589,-0.1643,-0.1698,-0.1704,-0.1723,-0.1587,-0.1659,-0.1574,-0.1776,-0.1779,-0.178,0,-0.1479,-0.1513,-0.1474,-0.1496,-0.1522,-0.1488,-0.1511,-0.1506,-0.1489,-0.1503,-0.1478,-0.1501,-0.1457,-0.1477,-0.1452,-0.1507,-0.149,-0.1507,-0.1507,-0.1536,-0.1543,-0.1479,-0.1343,-0.1442,-0.1441,-0.144,-0.1439,0,-0.1374,-0.1398,-0.1436,-0.1438,-0.1426,-0.1435,-0.143,-0.1428,-0.1425,-0.1433,-0.1439,-0.1429,-0.1422,-0.1422,-0.1395,-0.1361,-0.1437,-0.1382,-0.1456,-0.146,-0.1499,-0.1504,-0.1577,-0.1438,-0.1437,-0.1437,-0.1437,0,-0.1282,-0.1294,-0.1353,-0.1339,-0.1348,-0.1372,-0.1383,-0.1394,-0.1392,-0.1383,-0.1372,-0.1338,-0.1336,-0.1284,-0.1308,-0.1274,-0.1281,-0.1271,-0.1275,-0.1302,-0.1256,-0.1405,-0.154,-0.1477,-0.1303,-0.1301,-0.13,0,-0.1169,-0.1231,-0.1217,-0.1271,-0.1298,-0.1267,-0.1287,-0.1293,-0.1291,-0.1303,-0.1259,-0.1252,-0.1202,-0.118,-0.1189,-0.1161,-0.1201,-0.1142,-0.1176,-0.1177,-0.1223,-0.1337,-0.139,-0.1511,-0.1281,-0.1283,-0.1285,0,-0.1091,-0.1098,-0.1112,-0.1118,-0.1135,-0.1158,-0.1183,-0.1207,-0.1219,-0.1214,-0.1231,-0.1193,-0.1161,-0.1135,-0.1085,-0.1095,-0.1171,-0.1063,-0.1061,-0.1116,-0.1247,-0.1304,-0.1322,-0.1141,-0.1143,-0.1144,-0.127,0,-0.0978,-0.1009,-0.1038,-0.1074,-0.1088,-0.1124,-0.1122,-0.1132,-0.1122,-0.1122,-0.1117,-0.1072,-0.1045,-0.103,-0.0993,-0.1018,-0.1018,-0.0976,-0.0934,-0.0996,-0.1043,-0.1055,-0.089,-0.0888,-0.0887,-0.0885,0,0,-0.0888,-0.0943,-0.0941,-0.0977,-0.0993,-0.098,-0.102,-0.1023,-0.1032,-0.1033,-0.1012,-0.0977,-0.0933,-0.0921,-0.0937,-0.0914,-0.0931,-0.0889,-0.0961,-0.097,-0.0977,-0.1026,-0.1039,-0.0883,-0.0882,-0.0882,-0.0881,0,-0.0861,-0.0875,-0.0921,-0.0932,-0.0958,-0.0963,-0.0973,-0.0988,-0.0985,-0.0997,-0.0955,-0.0937,-0.09,-0.0874,-0.0851,-0.0895,-0.0863,-0.088,-0.0929,-0.0948,-0.0959,-0.0968,-0.1018,-0.103,-0.0878,-0.0878,-0.0878,0,-0.0797,-0.082,-0.0843,-0.0886,-0.0899,-0.0931,-0.0903,-0.0932,-0.0952,-0.0886,-0.09,-0.0866,-0.0816,-0.0812,-0.0803,-0.0778,-0.0811,-0.0772,-0.0779,-0.0781,-0.0799,-0.0811,-0.0822,-0.0682,-0.0682,-0.0682,0,0,-0.0774,-0.081,-0.0835,-0.0883,-0.0893,-0.0898,-0.0912,-0.0909,-0.0906,-0.09,-0.087,-0.0835,-0.0809,-0.0789,-0.0763,-0.0752,-0.0753,-0.0751,-0.076,-0.0767,-0.0775,-0.0794,-0.0806,-0.068,-0.068,-0.068,0,0,-0.0763,-0.08,-0.0798,-0.0854,-0.0874,-0.089,-0.091,-0.0901,-0.0889,-0.088,-0.0826,-0.0814,-0.0804,-0.0765,-0.0754,-0.0741,-0.07,-0.0701,-0.0766,-0.0777,-0.0786,-0.0802,-0.0689,0,0,0,0,0,-0.0754,-0.0798,-0.0796,-0.0808,-0.0857,-0.0893,-0.0896,-0.0894,-0.0876,-0.0888,-0.0858,-0.0808,-0.0756,-0.0745,-0.0732,-0.0739,-0.0661,-0.0665,-0.0668,-0.0749,-0.0761,-0.0771,0,0,0,0,0,0,-0.0759,-0.0774,-0.0795,-0.0816,-0.0827,-0.0891,-0.0862,-0.0861,-0.0874,-0.0871,-0.0819,-0.0806,-0.0767,-0.0746,-0.0736,-0.0744,-0.0692,-0.0662,-0.0665,-0.0668,-0.0753,-0.0763,-0.0771,0,0,0,0,0,-0.0763,-0.0775,-0.0858,-0.0814,-0.0824,-0.0834,-0.086,-0.0859,-0.0862,-0.0819,-0.0808,-0.0862,-0.0769,-0.0757,-0.074,-0.075,-0.0699,-0.0695,-0.0664,-0.0667,-0.0669,-0.0758,0,0,0,0,0,0,-0.0766,-0.0758,-0.0859,-0.0862,-0.0805,-0.0829,-0.0834,-0.0858,-0.0806,-0.08,-0.0858,-0.0856,-0.077,-0.076,-0.0751,-0.0756,-0.0704,-0.0701,-0.0699,-0.0666,-0.0668,-0.0669,0,0,0,0,0,0,-0.0752,-0.076,-0.086,-0.0849,-0.085,-0.0825,-0.083,-0.0796,-0.0802,-0.0845,-0.0844,-0.0857,-0.0763,-0.0763,-0.0756,-0.0705,-0.0709,-0.0705,-0.0703,-0.0701,-0.0667,-0.0669,0,0,0,0,0,0,-0.0755,-0.0762,-0.0848,-0.0848,-0.0849,-0.0868,-0.079,-0.0823,-0.0852,-0.0844,-0.0849,-0.0848,-0.0765,-0.0758,-0.0759,-0.0712,-0.0706,-0.0708,-0.0706,-0.0704,-0.0703,0,0,0,0,0,0,0,-0.0758,-0.0718,-0.0854,-0.0848,-0.0848,-0.0884,-0.0884,-0.0884,-0.0852,-0.0851,-0.085,-0.0849,-0.0729,-0.0725,-0.0721,-0.0717,0,0,-0.0709,-0.0707,0,0,0,0,0,0,0,0,-0.0715,-0.0717,-0.0854,-0.0855,-0.0856,-0.0884,-0.0884,-0.0884,-0.0852,-0.0851,-0.085,-0.0849,-0.0728,-0.0724,-0.0721,0,0,0,0,0,0,0,0,0,0,0,0,0,0,0,-0.0854,-0.0855,0,-0.0884,-0.0884,-0.0884,-0.0851,-0.0851,-0.085,-0.0849,-0.0727,-0.0724,-0.0722,0,0,0,0,0,0,0,0,0,0,0,0,0,0,0,0,0,0,0,0,0,0,0,0,0,0,0,0,0,0,0,0,0,0,0,0,0,0,0,0,0,0,0,0,0,0,0,0,0,0,0,0,0,0,0,0,0,0,0,0,0,0,0,0,0,0,0,0,0]}],[{"header":{"parameterUnit":"kt","parameterCategory":2,"dx":1,"dy":1,"la1":30.253999710083008,"la2":30.299108505249023,"lo1":-89.0895004272461,"lo2":-89.04439544677734,"nx":28,"ny":28,"refTime":"2022-10-31T21:00:00:Z","depth":"0","parameterNumber":3,"parameterNumberName":"V-component_of_CURRENTS"},"data":[-0.3633,-0.3681,-0.3714,-0.3816,-0.3848,-0.3928,-0.3973,-0.4144,-0.4331,-0.4578,-0.47,-0.4711,-0.3957,-0.2736,-0.1882,-0.166,-0.0966,-0.079,-0.0491,-0.1175,-0.1216,-0.1255,-0.1182,-0.0835,-0.0832,0.0468,0.0482,0.0493,-0.3615,-0.3632,-0.3678,-0.3732,-0.3786,-0.3775,-0.3842,-0.3927,-0.4058,-0.4224,-0.4289,-0.4268,-0.4014,-0.37,-0.3195,-0.26,-0.2305,-0.2148,-0.1652,-0.1554,-0.2662,-0.2655,-0.2616,-0.2617,-0.2617,-0.2617,-0.2618,-0.2618,-0.3578,-0.3594,-0.3617,-0.3666,-0.369,-0.3737,-0.377,-0.3831,-0.3889,-0.3974,-0.391,-0.3995,-0.3846,-0.3764,-0.3553,-0.3138,-0.2912,-0.2904,-0.2536,-0.2271,-0.2085,-0.3339,-0.3394,-0.3394,-0.3394,-0.3393,-0.3393,0,-0.3557,-0.3558,-0.356,-0.3604,-0.3624,-0.3636,-0.3651,-0.368,-0.3656,-0.3681,-0.3714,-0.3708,-0.365,-0.3624,-0.3528,-0.3406,-0.2787,-0.3199,-0.2825,-0.2405,-0.2103,-0.1927,-0.3091,-0.3126,-0.3124,-0.3123,-0.3122,-0.3121,-0.3538,-0.3537,-0.3535,-0.355,-0.3541,-0.3544,-0.3553,-0.3523,-0.3546,-0.3519,-0.3542,-0.3495,-0.3499,-0.3397,-0.3327,-0.3243,-0.2823,-0.3157,-0.3119,-0.281,-0.2434,-0.2138,-0.2002,-0.3103,-0.3106,-0.3107,-0.3109,0,-0.3537,-0.3508,-0.3505,-0.3485,-0.3482,-0.3489,-0.3475,-0.3488,-0.3458,-0.3471,-0.3458,-0.3404,-0.3352,-0.3248,-0.3125,-0.3079,-0.2784,-0.3009,-0.3044,-0.3035,-0.2798,-0.2476,-0.2033,-0.1862,-0.3071,-0.3074,-0.3076,0,-0.3507,-0.3499,-0.3464,-0.346,-0.3468,-0.3429,-0.3438,-0.3421,-0.3404,-0.3415,-0.3348,-0.3343,-0.3204,-0.3152,-0.306,-0.3019,-0.2961,-0.2967,-0.295,-0.2945,-0.2954,-0.2631,-0.2305,-0.2831,-0.2831,-0.2831,-0.2831,0,-0.3483,-0.3456,-0.3443,-0.3433,-0.3398,-0.3396,-0.3381,-0.3364,-0.3359,-0.333,-0.3325,-0.3252,-0.3207,-0.3121,-0.3028,-0.3001,-0.2938,-0.288,-0.2933,-0.294,-0.2912,-0.2918,-0.2628,-0.2831,-0.2831,-0.2831,-0.2831,0,-0.3441,-0.3424,-0.341,-0.3381,-0.3378,-0.3369,-0.336,-0.3341,-0.3318,-0.3299,-0.326,-0.321,-0.3151,-0.3102,-0.3002,-0.3007,-0.2952,-0.2901,-0.2898,-0.2966,-0.2933,-0.2935,-0.2989,-0.2647,-0.2865,-0.2865,-0.2865,0,-0.3432,-0.3407,-0.3366,-0.3361,-0.3354,-0.332,-0.3312,-0.3288,-0.3265,-0.3253,-0.3187,-0.3145,-0.3093,-0.3057,-0.3019,-0.2942,-0.2923,-0.2935,-0.2833,-0.2831,-0.2924,-0.2979,-0.2983,-0.2987,-0.2868,-0.2868,-0.2868,0,-0.3412,-0.3349,-0.3351,-0.3337,-0.3299,-0.3291,-0.3279,-0.3256,-0.3254,-0.3205,-0.3193,-0.3106,-0.3079,-0.3029,-0.2969,-0.2933,-0.2928,-0.2887,-0.2883,-0.2891,-0.2865,-0.297,-0.2978,-0.2877,-0.2877,-0.2876,-0.287,0,-0.3363,-0.3339,-0.3342,-0.3299,-0.3287,-0.328,-0.3242,-0.3234,-0.3206,-0.3177,-0.3133,-0.3065,-0.3001,-0.2969,-0.2925,-0.289,-0.2875,-0.2835,-0.2797,-0.2823,-0.2818,-0.2817,-0.2812,-0.2811,-0.281,-0.2809,0,0,-0.3363,-0.3318,-0.3277,-0.3265,-0.3254,-0.3218,-0.3211,-0.3188,-0.3143,-0.3135,-0.3111,-0.301,-0.2948,-0.2888,-0.289,-0.2858,-0.2835,-0.282,-0.2813,-0.2814,-0.2815,-0.2811,-0.2811,-0.2807,-0.2806,-0.2806,-0.2805,0,-0.333,-0.3295,-0.3276,-0.3257,-0.3226,-0.32,-0.32,-0.3162,-0.3143,-0.3111,-0.3061,-0.3024,-0.2929,-0.288,-0.2835,-0.2847,-0.2776,-0.281,-0.2843,-0.2804,-0.2807,-0.2809,-0.2807,-0.2807,-0.2803,-0.2803,-0.2803,0,-0.3304,-0.3265,-0.3245,-0.3199,-0.3182,-0.3169,-0.3136,-0.3123,-0.3106,-0.3038,-0.3016,-0.2967,-0.2884,-0.2838,-0.2811,-0.2789,-0.2733,-0.2733,-0.2738,-0.2741,-0.2699,-0.2702,-0.2705,-0.2667,-0.2666,-0.2666,0,0,-0.3287,-0.3253,-0.3204,-0.3189,-0.3183,-0.3144,-0.3134,-0.3104,-0.3069,-0.3054,-0.3003,-0.2943,-0.2885,-0.2847,-0.2795,-0.2751,-0.2724,-0.2719,-0.2726,-0.2731,-0.2738,-0.2697,-0.2701,-0.2666,-0.2666,-0.2666,0,0,-0.3281,-0.321,-0.3187,-0.3162,-0.3139,-0.3095,-0.3099,-0.3072,-0.304,-0.3033,-0.2957,-0.2938,-0.2895,-0.2843,-0.2848,-0.2759,-0.273,-0.2727,-0.2791,-0.2798,-0.2804,-0.2826,-0.2763,0,0,0,0,0,-0.3224,-0.3218,-0.3197,-0.3187,-0.3125,-0.3104,-0.3097,-0.3062,-0.3048,-0.3048,-0.3005,-0.2941,-0.2832,-0.2835,-0.2815,-0.2788,-0.2658,-0.2659,-0.2661,-0.2733,-0.2741,-0.2748,0,0,0,0,0,0,-0.322,-0.3207,-0.3198,-0.3152,-0.3139,-0.3103,-0.3068,-0.3059,-0.3047,-0.3042,-0.2955,-0.2938,-0.288,-0.2838,-0.2822,-0.2798,-0.2769,-0.2659,-0.266,-0.2661,-0.2736,-0.2742,-0.2748,0,0,0,0,0,-0.3217,-0.3206,-0.3111,-0.3153,-0.3141,-0.3095,-0.3068,-0.3059,-0.3047,-0.2963,-0.2947,-0.3023,-0.2883,-0.2863,-0.2828,-0.2807,-0.2779,-0.2774,-0.2659,-0.266,-0.2661,-0.2739,0,0,0,0,0,0,-0.3214,-0.3198,-0.3108,-0.3104,-0.3148,-0.3097,-0.3085,-0.306,-0.2968,-0.2954,-0.3026,-0.3022,-0.2884,-0.2869,-0.2854,-0.2815,-0.2788,-0.2782,-0.2779,-0.266,-0.2661,-0.2661,0,0,0,0,0,0,-0.3204,-0.3195,-0.3106,-0.3102,-0.3097,-0.3098,-0.3088,-0.303,-0.2965,-0.3033,-0.3029,-0.3025,-0.2886,-0.2873,-0.2861,-0.2773,-0.2795,-0.2789,-0.2785,-0.2783,-0.2661,-0.2661,0,0,0,0,0,0,-0.32,-0.3192,-0.3103,-0.3099,-0.3094,-0.3045,-0.3044,-0.2968,-0.3005,-0.3036,-0.3003,-0.3002,-0.2889,-0.2878,-0.2866,-0.2784,-0.2776,-0.2795,-0.2791,-0.2788,-0.2786,0,0,0,0,0,0,0,-0.3196,-0.3254,-0.3135,-0.3096,-0.3092,-0.3067,-0.3066,-0.3064,-0.3005,-0.3004,-0.3003,-0.3002,-0.2827,-0.2821,-0.2815,-0.2792,0,0,-0.2795,-0.2793,0,0,0,0,0,0,0,0,-0.3257,-0.3255,-0.3134,-0.3134,-0.3133,-0.3067,-0.3066,-0.3065,-0.3005,-0.3004,-0.3003,-0.3003,-0.2826,-0.2821,-0.2815,0,0,0,0,0,0,0,0,0,0,0,0,0,0,0,-0.3134,-0.3134,0,-0.3067,-0.3066,-0.3065,-0.3005,-0.3004,-0.3003,-0.3003,-0.2824,-0.282,-0.2816,0,0,0,0,0,0,0,0,0,0,0,0,0,0,0,0,0,0,0,0,0,0,0,0,0,0,0,0,0,0,0,0,0,0,0,0,0,0,0,0,0,0,0,0,0,0,0,0,0,0,0,0,0,0,0,0,0,0,0,0,0,0,0,0,0,0,0,0,0]}]],[[{"header":{"parameterUnit":"kt","parameterCategory":2,"dx":1,"dy":1,"la1":30.253999710083008,"la2":30.299108505249023,"lo1":-89.0895004272461,"lo2":-89.04439544677734,"nx":28,"ny":28,"refTime":"2022-10-31T21:00:00:Z","depth":"2","parameterNumber":2,"parameterNumberName":"U-component_of_CURRENTS"},"data":[-0.196,-0.1998,-0.201,-0.2097,-0.2153,-0.2254,-0.2336,-0.2546,-0.269,-0.2785,-0.2684,-0.2918,-0.2431,-0.185,-0.1529,-0.1176,-0.1271,-0.1002,-0.2103,-0.1741,-0.18,-0.1659,-0.145,0,0,0,0,0,-0.1961,-0.2001,-0.2052,-0.2115,-0.2186,-0.2207,-0.2366,-0.2491,-0.2761,-0.2976,-0.3207,-0.2606,-0.2478,-0.2242,-0.1886,-0.1878,-0.1662,-0.1595,-0.1221,-0.1279,-0.1332,-0.1161,-0.0753,-0.0752,-0.0751,-0.075,0,0,-0.1968,-0.1996,-0.205,-0.2096,-0.2166,-0.2243,-0.232,-0.2506,-0.2691,-0.2986,-0.3056,-0.3107,-0.2887,-0.2887,-0.2728,-0.2489,-0.2749,-0.2362,-0.2369,-0.2386,-0.2279,-0.2221,-0.2162,-0.2169,-0.2175,-0.2181,-0.2185,0,-0.1948,-0.1973,-0.2037,-0.208,-0.215,-0.2223,-0.2341,-0.2418,-0.2608,-0.2768,-0.2969,-0.3088,-0.3218,-0.3081,-0.3166,-0.3039,-0.2805,-0.272,-0.3392,-0.2106,-0.2031,-0.2005,-0.2023,-0.1958,-0.1964,-0.1969,-0.1973,-0.1975,-0.1916,-0.1947,-0.2032,-0.2069,-0.2115,-0.2208,-0.2291,-0.242,-0.2527,-0.2746,-0.283,-0.2996,-0.3128,-0.3294,-0.3284,-0.3343,-0.3325,-0.2845,-0.2672,-0.3225,-0.3206,-0.3187,-0.317,-0.2043,-0.2034,-0.2027,-0.2022,0,-0.1895,-0.1931,-0.2007,-0.2105,-0.2136,-0.221,-0.2336,-0.2439,-0.2564,-0.2716,-0.2763,-0.2911,-0.3037,-0.3089,-0.3164,-0.3159,-0.3216,-0.3229,-0.265,-0.2586,-0.316,-0.3146,-0.334,-0.3344,-0.3347,-0.3349,-0.3352,0,-0.1871,-0.193,-0.1991,-0.2032,-0.213,-0.2213,-0.2339,-0.244,-0.2575,-0.269,-0.2763,-0.2854,-0.29,-0.2977,-0.2965,-0.3049,-0.3045,-0.3035,-0.3036,-0.252,-0.2481,-0.2828,-0.2809,-0.2981,-0.298,-0.2979,-0.2979,0,-0.1826,-0.1919,-0.1986,-0.2017,-0.2132,-0.2201,-0.2274,-0.2412,-0.2494,-0.2642,-0.271,-0.2801,-0.2854,-0.2878,-0.2893,-0.2842,-0.2987,-0.2913,-0.2975,-0.2979,-0.248,-0.2437,-0.2977,-0.2977,-0.2977,-0.2976,-0.2976,0,-0.1817,-0.1856,-0.1944,-0.2043,-0.2079,-0.214,-0.2289,-0.237,-0.2502,-0.2561,-0.2638,-0.266,-0.275,-0.2684,-0.2776,-0.2729,-0.2733,-0.2743,-0.2747,-0.276,-0.2702,-0.2301,-0.234,-0.2771,-0.2769,-0.2767,-0.2765,0,-0.1761,-0.1837,-0.1872,-0.1964,-0.2017,-0.2082,-0.2163,-0.2255,-0.2328,-0.243,-0.2471,-0.2541,-0.2497,-0.2536,-0.2577,-0.2597,-0.2652,-0.2579,-0.2612,-0.2613,-0.2666,-0.2818,-0.2249,-0.2327,-0.2741,-0.2743,-0.2745,0,-0.1718,-0.1784,-0.1797,-0.1841,-0.1922,-0.1971,-0.2057,-0.2161,-0.2243,-0.2294,-0.2399,-0.2432,-0.2447,-0.2451,-0.2452,-0.2498,-0.2611,-0.2452,-0.2451,-0.2515,-0.2716,-0.2775,-0.2797,-0.2586,-0.2589,-0.2591,-0.2726,0,-0.1715,-0.1747,-0.1767,-0.1838,-0.1881,-0.1936,-0.2007,-0.2065,-0.2113,-0.2164,-0.2246,-0.2252,-0.2294,-0.2309,-0.2289,-0.2382,-0.2363,-0.2319,-0.2279,-0.2363,-0.2409,-0.2425,-0.2201,-0.2198,-0.2196,-0.2194,0,0,-0.1674,-0.1713,-0.1732,-0.1778,-0.1822,-0.1867,-0.193,-0.1971,-0.2041,-0.2087,-0.2074,-0.2138,-0.2127,-0.2198,-0.2233,-0.221,-0.2223,-0.2201,-0.231,-0.2324,-0.2336,-0.2384,-0.2402,-0.2191,-0.219,-0.2189,-0.2188,0,-0.1682,-0.1688,-0.1715,-0.1753,-0.1822,-0.1859,-0.1882,-0.1956,-0.1996,-0.2044,-0.205,-0.2088,-0.2079,-0.2108,-0.2111,-0.2177,-0.2152,-0.2168,-0.225,-0.2291,-0.2307,-0.2321,-0.2373,-0.239,-0.2183,-0.2184,-0.2184,0,-0.1679,-0.1707,-0.1713,-0.1766,-0.1804,-0.1857,-0.1873,-0.1927,-0.1979,-0.1948,-0.2008,-0.2005,-0.1987,-0.2022,-0.2031,-0.2007,-0.2094,-0.2041,-0.2051,-0.2047,-0.2086,-0.2104,-0.212,-0.1913,-0.1913,-0.1912,0,0,-0.1691,-0.17,-0.1761,-0.1774,-0.1801,-0.1855,-0.1881,-0.1918,-0.1949,-0.1963,-0.197,-0.1971,-0.1976,-0.1982,-0.1969,-0.1986,-0.1982,-0.2013,-0.2025,-0.2036,-0.2039,-0.208,-0.2097,-0.1911,-0.1911,-0.1911,0,0,-0.1702,-0.1751,-0.1766,-0.1784,-0.1833,-0.1887,-0.1905,-0.1936,-0.1958,-0.1966,-0.1952,-0.1949,-0.1974,-0.1942,-0.1926,-0.1973,-0.1915,-0.1917,-0.2015,-0.203,-0.2042,-0.2053,-0.1891,0,0,0,0,0,-0.1741,-0.1744,-0.1756,-0.1766,-0.1822,-0.1875,-0.1884,-0.1926,-0.1943,-0.1959,-0.1969,-0.1942,-0.1941,-0.1926,-0.1918,-0.1966,-0.1891,-0.1894,-0.1898,-0.2026,-0.2042,-0.2056,0,0,0,0,0,0,-0.1746,-0.1756,-0.1757,-0.1808,-0.1822,-0.1874,-0.1889,-0.19,-0.1943,-0.1948,-0.1944,-0.1941,-0.1924,-0.1927,-0.192,-0.1969,-0.1893,-0.1892,-0.1895,-0.1898,-0.2031,-0.2045,-0.2056,0,0,0,0,0,-0.1749,-0.1758,-0.1836,-0.1808,-0.182,-0.1879,-0.1889,-0.1899,-0.1933,-0.1921,-0.1922,-0.1968,-0.1924,-0.1918,-0.1923,-0.1974,-0.1898,-0.1895,-0.1894,-0.1896,-0.1899,-0.2038,0,0,0,0,0,0,-0.1752,-0.1758,-0.184,-0.1845,-0.1817,-0.1878,-0.1888,-0.1897,-0.1902,-0.1906,-0.194,-0.1943,-0.1923,-0.1918,-0.1914,-0.1979,-0.1902,-0.1899,-0.1898,-0.1896,-0.1898,-0.1899,0,0,0,0,0,0,-0.1755,-0.1762,-0.1842,-0.185,-0.1857,-0.1877,-0.1885,-0.1856,-0.1898,-0.1918,-0.1924,-0.1941,-0.1911,-0.1919,-0.1915,-0.1869,-0.1905,-0.1902,-0.19,-0.1899,-0.1897,-0.1899,0,0,0,0,0,0,-0.1759,-0.1765,-0.1849,-0.1854,-0.186,-0.1923,-0.1848,-0.1888,-0.1955,-0.1915,-0.1958,-0.196,-0.1909,-0.1907,-0.1916,-0.1872,-0.187,-0.1904,-0.1903,-0.1902,-0.1901,0,0,0,0,0,0,0,-0.1762,-0.1705,-0.1812,-0.1857,-0.1862,-0.19,-0.1901,-0.1902,-0.1956,-0.1957,-0.1958,-0.1959,-0.1918,-0.1916,-0.1913,-0.1874,0,0,-0.1905,-0.1904,0,0,0,0,0,0,0,0,-0.1704,-0.1705,-0.1813,-0.1814,-0.1816,-0.19,-0.1901,-0.1902,-0.1956,-0.1957,-0.1958,-0.1959,-0.1918,-0.1915,-0.1913,0,0,0,0,0,0,0,0,0,0,0,0,0,0,0,-0.1813,-0.1814,0,-0.19,-0.1901,-0.1902,-0.1956,-0.1957,-0.1958,-0.1958,-0.1917,-0.1915,-0.1913,0,0,0,0,0,0,0,0,0,0,0,0,0,0,0,0,0,0,0,0,0,0,0,0,0,0,0,0,0,0,0,0,0,0,0,0,0,0,0,0,0,0,0,0,0,0,0,0,0,0,0,0,0,0,0,0,0,0,0,0,0,0,0,0,0,0,0,0,0]}],[{"header":{"parameterUnit":"kt","parameterCategory":2,"dx":1,"dy":1,"la1":30.253999710083008,"la2":30.299108505249023,"lo1":-89.0895004272461,"lo2":-89.04439544677734,"nx":28,"ny":28,"refTime":"2022-10-31T21:00:00:Z","depth":"2","parameterNumber":3,"parameterNumberName":"V-component_of_CURRENTS"},"data":[-0.0187,-0.0332,-0.0372,-0.0665,-0.0825,-0.1107,-0.1253,-0.1299,-0.1125,-0.0832,-0.0392,0.0073,0.063,0.1075,0.1353,0.159,0.1355,0.1519,0.1166,0.1292,0.125,0.1402,0.1497,0,0,0,0,0,-0.0101,-0.0199,-0.0316,-0.0505,-0.0671,-0.0723,-0.0917,-0.102,-0.1182,-0.0885,-0.0828,-0.0175,0.0335,0.0649,0.1259,0.1443,0.1453,0.1317,0.1459,0.1429,0.1398,0.1467,0.1722,0.172,0.1717,0.1715,0,0,0.0036,-0.0049,-0.0177,-0.0321,-0.0452,-0.0615,-0.077,-0.0854,-0.097,-0.0946,-0.0867,-0.0611,-0.0149,0.0451,0.0575,0.0819,0.0836,0.1033,0.1024,0.1008,0.1061,0.1034,0.1208,0.1204,0.12,0.1197,0.1194,0,0.0141,0.0079,-0.003,-0.0177,-0.0305,-0.0441,-0.0578,-0.0642,-0.0709,-0.0728,-0.0764,-0.0738,-0.0438,-0.0015,0.026,0.0408,0.0592,0.0689,0.0227,0.105,0.1025,0.1057,0.1033,0.1191,0.1187,0.1183,0.1181,0.1179,0.0286,0.0182,0.0022,-0.0059,-0.0144,-0.0291,-0.0391,-0.0453,-0.0518,-0.0525,-0.055,-0.0509,-0.0491,-0.0297,0.0046,0.0236,0.0113,0.0586,0.0753,0.0316,0.0347,0.0344,0.0342,0.1131,0.1138,0.1142,0.1146,0,0.0368,0.0285,0.0119,-0.0022,-0.0066,-0.0178,-0.0313,-0.0386,-0.0397,-0.0446,-0.0451,-0.0373,-0.0325,-0.0205,-0.0044,0.011,0.0232,0.0265,0.0524,0.0589,0.0345,0.0342,0.0369,0.0369,0.0369,0.0368,0.0368,0,0.0468,0.0337,0.0217,0.0125,-0.0014,-0.009,-0.0217,-0.025,-0.0285,-0.0333,-0.0257,-0.0259,-0.0101,-0.0046,0.0059,0.0168,0.0176,0.0329,0.0364,0.0645,0.0665,0.0444,0.0449,0.0395,0.0395,0.0396,0.0396,0,0.0596,0.0408,0.0259,0.0201,0.0058,-0.0016,-0.0089,-0.0133,-0.0179,-0.0177,-0.0181,-0.012,-0.0096,0.0011,0.0095,0.0137,0.0214,0.0313,0.036,0.0357,0.0706,0.0733,0.0396,0.0396,0.0396,0.0396,0.0396,0,0.066,0.0551,0.0367,0.023,0.0178,0.0091,-0.0019,-0.0082,-0.0091,-0.01,-0.0081,-0.0033,0.0001,0.0056,0.016,0.014,0.0205,0.028,0.0284,0.0348,0.04,0.0686,0.0687,0.0313,0.0312,0.0312,0.0312,0,0.0811,0.0612,0.0549,0.0373,0.0264,0.0215,0.0147,0.0087,0.0061,0.0032,0.0083,0.0073,0.0104,0.0103,0.015,0.024,0.0259,0.0243,0.0399,0.0402,0.0398,0.0326,0.065,0.0667,0.0307,0.0307,0.0308,0,0.0919,0.0737,0.0698,0.0613,0.0468,0.0396,0.0309,0.0226,0.0181,0.0143,0.0111,0.0123,0.015,0.018,0.0224,0.0273,0.0249,0.0317,0.0325,0.0304,0.0328,0.0318,0.032,0.0314,0.0315,0.0316,0.0304,0,0.0994,0.087,0.0799,0.0633,0.0567,0.0461,0.0396,0.0338,0.0288,0.0272,0.0242,0.0287,0.0304,0.0304,0.0333,0.0336,0.0344,0.0415,0.0487,0.0426,0.0425,0.0427,0.0444,0.0448,0.045,0.0452,0,0,0.1129,0.0971,0.0892,0.0784,0.0709,0.0651,0.055,0.0514,0.0436,0.0417,0.0406,0.0421,0.0451,0.0463,0.0421,0.0446,0.0469,0.0454,0.0446,0.0445,0.0444,0.044,0.0439,0.0457,0.0458,0.0458,0.0459,0,0.1142,0.1037,0.0926,0.0858,0.0726,0.0689,0.0644,0.0554,0.0516,0.0458,0.0484,0.0481,0.0489,0.0524,0.0546,0.0478,0.0544,0.0469,0.0401,0.0465,0.046,0.0456,0.045,0.0447,0.0465,0.0465,0.0465,0,0.1208,0.1104,0.104,0.0897,0.0828,0.0746,0.0744,0.0642,0.0583,0.0645,0.0565,0.059,0.0645,0.0623,0.0615,0.0652,0.0625,0.0627,0.0616,0.0633,0.0705,0.0698,0.0692,0.0775,0.0775,0.0776,0,0,0.1216,0.1102,0.0999,0.0894,0.0845,0.0776,0.073,0.0686,0.0647,0.0627,0.063,0.0644,0.0659,0.066,0.0684,0.0678,0.0734,0.0659,0.0644,0.0632,0.0641,0.071,0.0703,0.0777,0.0777,0.0778,0,0,0.1236,0.1081,0.1037,0.0912,0.0839,0.0778,0.0719,0.069,0.0659,0.0637,0.0681,0.0686,0.0653,0.0704,0.0718,0.0697,0.0765,0.0764,0.0645,0.0628,0.0614,0.0616,0.0784,0,0,0,0,0,0.1177,0.1098,0.1059,0.1024,0.0875,0.0795,0.0782,0.0722,0.0697,0.0662,0.0659,0.07,0.0717,0.0731,0.0742,0.0699,0.0799,0.0795,0.0791,0.0638,0.062,0.0604,0,0,0,0,0,0,0.1164,0.1123,0.1062,0.099,0.0955,0.0798,0.0796,0.0782,0.0699,0.0691,0.0699,0.0704,0.0745,0.0729,0.0739,0.0695,0.0781,0.0797,0.0794,0.0791,0.0632,0.0617,0.0604,0,0,0,0,0,0.1152,0.1119,0.0873,0.0994,0.0963,0.0869,0.0796,0.0784,0.072,0.0748,0.0747,0.0663,0.0746,0.0753,0.0735,0.0689,0.0775,0.0778,0.0795,0.0793,0.079,0.0625,0,0,0,0,0,0,0.1144,0.1148,0.0868,0.0859,0.0979,0.0877,0.0853,0.0786,0.0784,0.0777,0.0723,0.0718,0.0747,0.0752,0.0758,0.0682,0.077,0.0773,0.0775,0.0793,0.0791,0.0789,0,0,0,0,0,0,0.1164,0.1141,0.0865,0.0849,0.0839,0.0884,0.0862,0.09,0.0789,0.0764,0.0756,0.0721,0.0755,0.0752,0.0757,0.0819,0.0766,0.0769,0.0772,0.0773,0.0792,0.079,0,0,0,0,0,0,0.1155,0.1134,0.0852,0.0844,0.0835,0.0743,0.0924,0.079,0.0709,0.077,0.0705,0.0703,0.0757,0.076,0.0756,0.0816,0.0818,0.0766,0.0769,0.077,0.0771,0,0,0,0,0,0,0,0.1147,0.1277,0.0903,0.084,0.0832,0.0774,0.0773,0.0772,0.0709,0.0707,0.0705,0.0703,0.0748,0.0752,0.0755,0.0814,0,0,0.0766,0.0768,0,0,0,0,0,0,0,0,0.1286,0.128,0.0902,0.0899,0.0897,0.0773,0.0773,0.0772,0.0709,0.0707,0.0706,0.0704,0.0749,0.0752,0.0755,0,0,0,0,0,0,0,0,0,0,0,0,0,0,0,0.0902,0.09,0,0.0773,0.0773,0.0773,0.0708,0.0707,0.0706,0.0705,0.075,0.0752,0.0755,0,0,0,0,0,0,0,0,0,0,0,0,0,0,0,0,0,0,0,0,0,0,0,0,0,0,0,0,0,0,0,0,0,0,0,0,0,0,0,0,0,0,0,0,0,0,0,0,0,0,0,0,0,0,0,0,0,0,0,0,0,0,0,0,0,0,0,0,0]}]],[[{"header":{"parameterUnit":"kt","parameterCategory":2,"dx":1,"dy":1,"la1":30.253999710083008,"la2":30.299108505249023,"lo1":-89.0895004272461,"lo2":-89.04439544677734,"nx":28,"ny":28,"refTime":"2022-10-31T21:00:00:Z","depth":"4","parameterNumber":2,"parameterNumberName":"U-component_of_CURRENTS"},"data":[-0.0381,-0.0403,-0.0476,-0.0391,-0.038,-0.0331,-0.0362,-0.0438,-0.0456,-0.0609,-0.0643,-0.0784,-0.0839,-0.0914,-0.0908,-0.0922,-0.1076,-0.1061,-0.1058,-0.1394,-0.142,-0.1444,-0.1562,0,0,0,0,0,-0.0461,-0.0465,-0.0526,-0.0587,-0.0577,-0.0609,-0.0645,-0.0727,-0.0838,-0.0734,-0.0909,-0.0863,-0.0914,-0.0959,-0.0935,-0.1017,-0.1211,-0.0981,-0.1261,-0.1411,-0.1439,-0.1545,0,0,0,0,0,0,-0.0577,-0.0607,-0.0705,-0.0797,-0.0814,-0.0767,-0.0861,-0.088,-0.0898,-0.1057,-0.0978,-0.1097,-0.1205,-0.1206,-0.1185,-0.1211,-0.1236,-0.127,-0.1304,-0.1333,-0.1388,-0.1317,-0.0897,0,0,0,0,0,-0.0657,-0.075,-0.0855,-0.0934,-0.1033,-0.1072,-0.1212,-0.1154,-0.1337,-0.1434,-0.1377,-0.141,-0.1307,-0.1398,-0.1385,-0.1391,-0.1723,-0.157,-0.1588,-0.1775,-0.1745,-0.1759,-0.1792,-0.1549,-0.1553,-0.1555,-0.1556,0,-0.076,-0.0805,-0.104,-0.1089,-0.1243,-0.147,-0.1485,-0.1717,-0.1716,-0.1804,-0.1693,-0.1718,-0.1768,-0.1578,-0.1721,-0.1708,-0.1713,-0.1644,-0.1845,-0.1794,-0.1795,-0.1823,-0.1847,-0.158,-0.1578,-0.1576,-0.1574,0,-0.0816,-0.0912,-0.1042,-0.1302,-0.1386,-0.1558,-0.1734,-0.1782,-0.2006,-0.1975,-0.2033,-0.2117,-0.2103,-0.216,-0.2148,-0.2119,-0.2038,-0.1932,-0.2177,-0.2179,-0.188,-0.1896,-0.1618,-0.1609,-0.1602,-0.1596,-0.1591,0,-0.0917,-0.099,-0.1214,-0.1268,-0.1419,-0.1612,-0.1782,-0.1959,-0.2075,-0.2048,-0.2319,-0.2276,-0.2479,-0.2412,-0.2465,-0.2298,-0.2379,-0.2212,-0.2183,-0.2511,-0.2523,-0.2426,-0.243,-0.2414,-0.2416,-0.2418,-0.242,0,-0.0975,-0.1093,-0.1169,-0.1217,-0.1383,-0.1541,-0.1689,-0.1864,-0.1908,-0.2197,-0.2217,-0.2409,-0.2498,-0.2521,-0.2558,-0.2633,-0.2445,-0.2541,-0.2285,-0.2269,-0.244,-0.244,-0.2422,-0.2423,-0.2423,-0.2424,-0.2425,0,-0.1034,-0.1077,-0.1147,-0.1304,-0.1333,-0.1458,-0.1664,-0.1787,-0.1949,-0.2084,-0.2264,-0.2381,-0.2526,-0.2613,-0.2639,-0.2716,-0.2692,-0.267,-0.2661,-0.241,-0.2423,-0.244,-0.2534,-0.2536,-0.2539,-0.2541,-0.2543,0,-0.1074,-0.1107,-0.1142,-0.1245,-0.1281,-0.1382,-0.1492,-0.1617,-0.1793,-0.1971,-0.2124,-0.2359,-0.2493,-0.2688,-0.2717,-0.2792,-0.2749,-0.2847,-0.2638,-0.2627,-0.2411,-0.2448,-0.2853,-0.2574,-0.257,-0.2567,-0.2565,0,-0.1085,-0.1135,-0.1135,-0.1196,-0.124,-0.1293,-0.1419,-0.1527,-0.1653,-0.1878,-0.2032,-0.2364,-0.2487,-0.2588,-0.2752,-0.2764,-0.2784,-0.2802,-0.2797,-0.2626,-0.2678,-0.2504,-0.2468,-0.286,-0.2859,-0.2857,-0.2587,0,-0.1152,-0.1158,-0.1157,-0.1178,-0.1215,-0.124,-0.1334,-0.1467,-0.1629,-0.1712,-0.1989,-0.2195,-0.2425,-0.2563,-0.2648,-0.2787,-0.2734,-0.2767,-0.2653,-0.2769,-0.264,-0.2624,-0.2772,-0.2769,-0.2766,-0.2764,0,0,-0.1164,-0.1139,-0.1129,-0.1142,-0.1172,-0.121,-0.1242,-0.1317,-0.1492,-0.1579,-0.1692,-0.208,-0.2237,-0.2428,-0.2556,-0.2638,-0.2585,-0.2639,-0.2755,-0.2755,-0.2754,-0.2635,-0.2622,-0.276,-0.2759,-0.2758,-0.2757,0,-0.1158,-0.1139,-0.1125,-0.1143,-0.1166,-0.1181,-0.1214,-0.1294,-0.1387,-0.1582,-0.1696,-0.1903,-0.2184,-0.2292,-0.2379,-0.2591,-0.2537,-0.2725,-0.2755,-0.2738,-0.2741,-0.2743,-0.2628,-0.2618,-0.2752,-0.2752,-0.2752,0,-0.1165,-0.115,-0.1139,-0.1126,-0.1131,-0.1157,-0.1177,-0.1212,-0.1293,-0.1378,-0.1604,-0.1756,-0.1894,-0.212,-0.2236,-0.2195,-0.2426,-0.2462,-0.2477,-0.2384,-0.2354,-0.2362,-0.2369,-0.2263,-0.2261,-0.2259,0,0,-0.1164,-0.1141,-0.114,-0.1124,-0.1129,-0.1155,-0.1173,-0.1209,-0.1295,-0.1347,-0.1509,-0.1676,-0.1831,-0.1945,-0.2073,-0.2257,-0.2153,-0.2402,-0.2425,-0.2444,-0.2365,-0.234,-0.2349,-0.2253,-0.2253,-0.2253,0,0,-0.1173,-0.1151,-0.1152,-0.1131,-0.1145,-0.1146,-0.1163,-0.1208,-0.1319,-0.1365,-0.1483,-0.1528,-0.177,-0.1815,-0.172,-0.2104,-0.2009,-0.203,-0.2085,-0.2114,-0.2137,-0.2007,-0.1743,0,0,0,0,0,-0.1159,-0.1142,-0.1142,-0.1139,-0.1119,-0.1124,-0.1126,-0.1176,-0.1231,-0.1251,-0.1395,-0.1437,-0.1805,-0.172,-0.1753,-0.1925,-0.2172,-0.2187,-0.22,-0.2314,-0.2344,-0.237,0,0,0,0,0,0,-0.1157,-0.1149,-0.1144,-0.1136,-0.1134,-0.1123,-0.1157,-0.1168,-0.1231,-0.1245,-0.1402,-0.1438,-0.1498,-0.1708,-0.1736,-0.1901,-0.1733,-0.2178,-0.219,-0.2201,-0.2324,-0.2349,-0.237,0,0,0,0,0,-0.1157,-0.1151,-0.1106,-0.1138,-0.1135,-0.1188,-0.116,-0.117,-0.1233,-0.1338,-0.1372,-0.1285,-0.1492,-0.1531,-0.1725,-0.1888,-0.1714,-0.1724,-0.2186,-0.2195,-0.2204,-0.2336,0,0,0,0,0,0,-0.1156,-0.1148,-0.1107,-0.1109,-0.1179,-0.1194,-0.1196,-0.1172,-0.1329,-0.1355,-0.1222,-0.1231,-0.1487,-0.1518,-0.1547,-0.1884,-0.1698,-0.1709,-0.1715,-0.2193,-0.2201,-0.2207,0,0,0,0,0,0,-0.1153,-0.1149,-0.1108,-0.1157,-0.1164,-0.1198,-0.1201,-0.1296,-0.1337,-0.1205,-0.1215,-0.1226,-0.1526,-0.1508,-0.1532,-0.1671,-0.1686,-0.1696,-0.1703,-0.1708,-0.2199,-0.2205,0,0,0,0,0,0,-0.1152,-0.1149,-0.1156,-0.1162,-0.1169,-0.1189,-0.1294,-0.1317,-0.1231,-0.1202,-0.1242,-0.1248,-0.152,-0.154,-0.152,-0.1648,-0.1665,-0.1686,-0.1693,-0.1698,-0.1702,0,0,0,0,0,0,0,-0.1152,-0.1161,-0.1104,-0.1166,-0.1172,-0.1129,-0.1129,-0.1128,-0.1232,-0.1237,-0.1241,-0.1245,-0.1628,-0.1639,-0.1651,-0.163,0,0,-0.1685,-0.169,0,0,0,0,0,0,0,0,-0.1164,-0.1162,-0.1105,-0.1105,-0.1106,-0.1129,-0.1129,-0.1128,-0.1233,-0.1237,-0.124,-0.1244,-0.1631,-0.164,-0.1649,0,0,0,0,0,0,0,0,0,0,0,0,0,0,0,-0.1105,-0.1105,0,-0.1129,-0.1129,-0.1129,-0.1233,-0.1236,-0.1239,-0.1242,-0.1634,-0.1641,-0.1649,0,0,0,0,0,0,0,0,0,0,0,0,0,0,0,0,0,0,0,0,0,0,0,0,0,0,0,0,0,0,0,0,0,0,0,0,0,0,0,0,0,0,0,0,0,0,0,0,0,0,0,0,0,0,0,0,0,0,0,0,0,0,0,0,0,0,0,0,0]}],[{"header":{"parameterUnit":"kt","parameterCategory":2,"dx":1,"dy":1,"la1":30.253999710083008,"la2":30.299108505249023,"lo1":-89.0895004272461,"lo2":-89.04439544677734,"nx":28,"ny":28,"refTime":"2022-10-31T21:00:00:Z","depth":"4","parameterNumber":3,"parameterNumberName":"V-component_of_CURRENTS"},"data":[0.0207,0.0142,0.0062,0.0007,-0.0017,-0.0192,-0.0326,-0.0463,-0.0421,-0.0468,-0.0257,-0.0201,0.0183,-0.0032,0.056,0.0626,0.0689,0.1025,0.1032,0.1073,0.106,0.1049,0.0899,0,0,0,0,0,0.0155,0.0088,0.0028,-0.0074,-0.0172,-0.0234,-0.0465,-0.0602,-0.0718,-0.0617,-0.0615,-0.035,0.0055,0.0183,0.0497,0.0488,0.0812,0.0858,0.0887,0.1065,0.1051,0.091,0,0,0,0,0,0,0.0067,0.0021,-0.0051,-0.0108,-0.0218,-0.0368,-0.049,-0.0562,-0.0649,-0.0674,-0.0617,-0.0381,-0.0272,0.0128,0.0458,0.0753,0.0778,0.0846,0.0845,0.0834,0.0694,0.0703,0.0852,0,0,0,0,0,-0.0028,-0.0057,-0.0146,-0.0207,-0.0292,-0.0465,-0.055,-0.0613,-0.0715,-0.0758,-0.0648,-0.0438,-0.0204,0.0115,0.0459,0.0759,0.083,0.0965,0.0957,0.0828,0.0856,0.0873,0.0855,0.0997,0.0996,0.0994,0.0994,0,-0.0062,-0.0124,-0.0278,-0.0326,-0.0373,-0.0454,-0.0535,-0.0645,-0.0698,-0.0716,-0.0718,-0.0525,-0.0393,0.0073,0.0299,0.0743,0.0776,0.0928,0.079,0.0831,0.0856,0.084,0.0825,0.0982,0.0983,0.0984,0.0985,0,-0.0073,-0.0194,-0.0321,-0.0475,-0.0514,-0.0541,-0.0685,-0.0742,-0.0716,-0.0734,-0.0671,-0.0586,-0.0302,-0.009,0.0215,0.0375,0.0631,0.0737,0.0616,0.0643,0.0811,0.0801,0.0964,0.0968,0.0971,0.0974,0.0977,0,-0.0126,-0.0233,-0.0382,-0.044,-0.054,-0.0643,-0.0701,-0.0703,-0.0736,-0.076,-0.062,-0.0569,-0.0336,-0.0158,0.0113,0.0415,0.0373,0.0551,0.0593,0.0409,0.0402,0.0372,0.0359,0.0457,0.0455,0.0453,0.0451,0,-0.0076,-0.0295,-0.0416,-0.0478,-0.0658,-0.0679,-0.0735,-0.0762,-0.0801,-0.0693,-0.0675,-0.0503,-0.037,-0.0172,0.0146,0.0139,0.0367,0.0331,0.0529,0.054,0.0356,0.0347,0.0449,0.0449,0.0448,0.0447,0.0447,0,-0.0107,-0.0221,-0.0374,-0.0563,-0.0605,-0.0663,-0.0744,-0.0788,-0.0777,-0.0725,-0.0621,-0.0522,-0.0335,-0.0239,0.002,0.0008,0.0197,0.0275,0.0285,0.0296,0.0327,0.0368,0.0453,0.0452,0.045,0.0449,0.0448,0,-0.0031,-0.0207,-0.0291,-0.0455,-0.0548,-0.0595,-0.0647,-0.069,-0.0665,-0.0651,-0.0557,-0.0476,-0.0315,-0.0167,-0.0087,0.0059,0.0165,0.0084,0.0239,0.0243,0.0317,0.0402,0.0163,0.0427,0.043,0.0432,0.0433,0,0.0033,-0.0158,-0.0176,-0.0259,-0.0378,-0.0449,-0.0503,-0.057,-0.0577,-0.0529,-0.0523,-0.04,-0.0266,-0.0236,-0.0099,-0.0036,0.0143,0.0092,0.0091,0.0224,0.0306,0.0374,0.0394,0.0163,0.0163,0.0163,0.0419,0,0.0006,-0.008,-0.0125,-0.0248,-0.0311,-0.0385,-0.0431,-0.0442,-0.0406,-0.041,-0.0366,-0.0299,-0.0229,-0.017,-0.0084,0.0,0.0083,0.0035,0.005,0.0074,0.0189,0.0201,0.0037,0.0036,0.0034,0.0033,0,0,0.0107,-0.0008,-0.0052,-0.0134,-0.019,-0.0207,-0.029,-0.0313,-0.0345,-0.0342,-0.0276,-0.0233,-0.0182,-0.015,-0.0074,-0.0083,-0.0002,0.0021,0.0056,0.0059,0.0061,0.0172,0.0185,0.003,0.003,0.0029,0.0029,0,0.0086,0.0043,-0.0025,-0.0083,-0.0156,-0.0202,-0.0209,-0.0261,-0.0253,-0.0281,-0.0236,-0.0182,-0.0154,-0.0123,-0.0103,-0.0099,0.0,-0.0023,0.003,0.0044,0.0049,0.0053,0.0163,0.0176,0.0025,0.0025,0.0025,0,0.0125,0.0067,0.0035,-0.0062,-0.0109,-0.0186,-0.015,-0.0202,-0.024,-0.0199,-0.0215,-0.017,-0.0156,-0.0123,-0.0104,-0.009,0.0005,-0.0033,-0.0027,-0.0065,-0.0055,-0.0049,-0.0044,-0.0104,-0.0104,-0.0104,0,0,0.0121,0.0059,-0.0013,-0.0067,-0.0096,-0.0142,-0.017,-0.0179,-0.0206,-0.021,-0.0185,-0.0162,-0.015,-0.0113,-0.0134,-0.0104,-0.0101,-0.0043,-0.0037,-0.0032,-0.0066,-0.0055,-0.005,-0.0104,-0.0104,-0.0104,0,0,0.0127,0.0038,0.0028,-0.0038,-0.0095,-0.0165,-0.0192,-0.0189,-0.0209,-0.0188,-0.0159,-0.0153,-0.0131,-0.013,-0.0131,-0.0054,-0.0088,-0.0089,-0.0011,-0.0004,0.0001,-0.0033,-0.0071,0,0,0,0,0,0.0084,0.0041,0.0032,0.0015,-0.0093,-0.0174,-0.0188,-0.0193,-0.0153,-0.0178,-0.0166,-0.0118,-0.0121,-0.0123,-0.0123,-0.0036,-0.0099,-0.01,-0.0101,-0.0,0.0007,0.0014,0,0,0,0,0,0,0.0077,0.0054,0.0033,-0.004,-0.0063,-0.0173,-0.0134,-0.0138,-0.015,-0.0143,-0.0129,-0.0119,-0.0108,-0.0119,-0.012,-0.0035,-0.0071,-0.0099,-0.01,-0.0101,0.0002,0.0008,0.0014,0,0,0,0,0,0.0071,0.0053,-0.0111,-0.0039,-0.006,-0.0085,-0.013,-0.0133,-0.014,-0.0133,-0.0125,-0.0132,-0.0111,-0.0107,-0.0119,-0.0034,-0.0069,-0.007,-0.01,-0.01,-0.0101,0.0005,0,0,0,0,0,0,0.0067,0.0035,-0.0116,-0.0123,0.0004,-0.0078,-0.0089,-0.0129,-0.0127,-0.0123,-0.0135,-0.0129,-0.0115,-0.0111,-0.0108,-0.0031,-0.0068,-0.0069,-0.007,-0.01,-0.0101,-0.0101,0,0,0,0,0,0,0.0046,0.0029,-0.012,-0.0064,-0.0065,-0.0071,-0.0081,-0.0102,-0.0123,-0.0128,-0.0125,-0.0131,-0.0072,-0.0114,-0.0112,-0.0148,-0.0068,-0.0068,-0.0069,-0.0069,-0.01,-0.0101,0,0,0,0,0,0,0.0038,0.0024,-0.0063,-0.0064,-0.0064,-0.0146,-0.0085,-0.0167,-0.0157,-0.0126,-0.0146,-0.0141,-0.0073,-0.0073,-0.0115,-0.0153,-0.015,-0.0068,-0.0068,-0.0068,-0.0069,0,0,0,0,0,0,0,0.0032,0.0132,-0.0068,-0.0063,-0.0064,-0.0185,-0.0188,-0.019,-0.0156,-0.0151,-0.0147,-0.0143,-0.0064,-0.0064,-0.0065,-0.0157,0,0,-0.0068,-0.0068,0,0,0,0,0,0,0,0,0.0138,0.0134,-0.0069,-0.007,-0.0071,-0.0185,-0.0188,-0.019,-0.0155,-0.0151,-0.0148,-0.0144,-0.0064,-0.0064,-0.0065,0,0,0,0,0,0,0,0,0,0,0,0,0,0,0,-0.0069,-0.007,0,-0.0186,-0.0187,-0.0189,-0.0154,-0.0151,-0.0148,-0.0146,-0.0064,-0.0064,-0.0065,0,0,0,0,0,0,0,0,0,0,0,0,0,0,0,0,0,0,0,0,0,0,0,0,0,0,0,0,0,0,0,0,0,0,0,0,0,0,0,0,0,0,0,0,0,0,0,0,0,0,0,0,0,0,0,0,0,0,0,0,0,0,0,0,0,0,0,0,0]}]]]